Погода в Ленинкенте

Россия / Республика Дагестан     42°29′03″N   47°45′12″E
темп.,
°C
ветер,
м/с
пор.,
м/с
влажн.,
%
обл.,
%
осадки,
мм/ч
давл.,
гПа
погр.,
м
25 июня, сб
сб2500:00+17ю2286100 0.1 100927
03:00+16зюз018797 0.1 100917
06:00+19юв1175100 0.0 1009184
09:00+23св326499 0.0 1009785
12:00+25св535834 0.0 10091037
15:00+24св3262100 0.1 1008784
18:00+22ссв2267100 0.2 1009387
21:00+19зсз1181100 0.2 100911
26 июня, вс
вс2600:00+20зсз2275100 0.0 100815
03:00+20сз2278100 0.2 100922
06:00+21юв017086 0.0 1008130
09:00+25с4351100 0.0 1007870
12:00+27ссв4347100 0.0 10071107
15:00+27с564779 0.0 10061129
18:00+26ссз684881 0.0 1005950
21:00+21зюз4477100 1.3 100855
27 июня, пн
пн2700:00+21з5671100 0.4 100792
03:00+20зсз44720 0.5 100751
06:00+23зсз410640 0.0 1008409
09:00+29ссз89420 0.0 10071028
12:00+29ссз1111440 0.0 10081245
15:00+29ссз911482 0.0 10081234
18:00+27сз811495 0.0 1008880
21:00+23зсз7136115 0.0 1009368
28 июня, вт
вт2800:00+24зсз71450100 0.0 1008518
03:00+22зсз71355100 0.0 1008398
06:00+23сз712480 0.0 1008574
09:00+27ссз1012360 0.0 1007987
12:00+29ссз1011370 0.0 10071342
15:00+26с911540 0.0 1008927
18:00+23ссз79600 0.0 1010717
21:00+21з44640 0.1 101160
29 июня, ср
ср2900:00+21з4758100 0.1 1011142
03:00+22з335095 0.1 101144
06:00+23з23430 0.0 1012111
09:00+28с55300 0.0 10111397
12:00+28св66330 0.0 10121373
15:00+26св53520 0.0 1012997
18:00+22ссв337521 0.0 1013566
21:00+19ссв239188 0.1 1014208